Regional Weather Roundup
Issued by NWS

Home | Current Version | Previous Version | Graphics & Text | Print | Product List | Glossary On
Versions: 1 2 3 4 5 6 7 8 9 10 11 12 13 14 15 16 17 18 19 20 21 22 23 24 25 26 27 28 29 30 31 32 33 34 35 36 37 38 39 40 41 42 43 44 45 46 47 48 49 50
000
ASUS43 KIND 221609
RWRIN

WEATHER ROUNDUP FOR INDIANA
NATIONAL WEATHER SERVICE INDIANAPOLIS IN
1200 PM EDT MON MAY 22 2017

NOTE: "FAIR" INDICATES FEW OR NO CLOUDS BELOW 12,000 FEET WITH NO
SIGNIFICANT WEATHER AND/OR OBSTRUCTIONS TO VISIBILITY.

* - STATION DOES NOT REPORT WEATHER SUCH AS PRECIPITATION OR FOG.

+ - STATION NOT QUALITY CONTROLLED BY THE NATIONAL WEATHER SERVICE.
    USE DATA WITH CAUTION...ESPECIALLY DEWPOINT AND RELATIVE
    HUMIDITY OBSERVATIONS.

INZ001>003-010>013-019-020-221700-
NORTHWEST INDIANA

CITY           SKY/WX    TMP DP  RH WIND       PRES   REMARKS
GARY /AIRPORT/ SUNNY     64  41  42 SW12      30.05F
KNOX *+        SUNNY     61  34  36 W10       30.06S
LA PORTE +     SUNNY     61  46  58 W10       30.06F
MICHIGAN CITY+ SUNNY     63  45  51 SW9       30.05S
MONTICELLO +   SUNNY     62  44  53 W7        30.07F
RENSSELAER +   SUNNY     63  41  45 W12       30.08S
VALPARAISO     SUNNY     63  46  54 SW12      30.06S

$$

LMZ046-743>745-221700-
SOUTHERN LAKE MICHIGAN

STATION/POSITION TIME  TEMP    WIND        PRES    WAVE
                       AIR SEA DIR/SP/G            HT
                 (UTC) (F)     (DEG/KT/KT) (MB)    (FT)
BURNS HARBOR     1540   60     230/  7/ 13 1017.9F
MICHIGAN CITY    1540   56     240/ 10/ 11   N/A
5NW MICH CITY    1520   53 52  230/  8/ 10   N/A     2

$$

INZ004-005-014>016-021>024-221700-
NORTH CENTRAL INDIANA

CITY           SKY/WX    TMP DP  RH WIND       PRES   REMARKS
ELKHART        SUNNY     63  43  48 W13       30.05
GOSHEN         SUNNY     60  43  53 W17       30.06R
LOGANSPORT +   SUNNY     61  45  55 SW9       30.10S
PERU/GRISSOM   SUNNY     62  46  57 W9        30.08F
ROCHESTER +    SUNNY     63  45  51 SW10G17   30.08F
SOUTH BEND     SUNNY     60  44  55 SW12      30.05F
WARSAW +       SUNNY     61  45  55 SW12      30.07F

$$

INZ006>009-017-018-025>027-221700-
NORTHEAST INDIANA

CITY           SKY/WX    TMP DP  RH WIND       PRES   REMARKS
ANGOLA *+      SUNNY     61  52  72 W16       30.04S
AUBURN +       RAIN      61  43  51 W13G18    30.07F
FORT WAYNE     CLOUDY    62  46  55 W10G20    30.07F
HUNTINGTON +   CLOUDY    62  46  57 SW7       30.08F
KENDALLVILLE + MOSUNNY   62  45  52 W14G21    30.06S

$$

INZ028-029-035-036-043>045-051>053-221700-
WEST CENTRAL INDIANA

CITY           SKY/WX    TMP DP  RH WIND       PRES   REMARKS
CRAWFORDSVL +  SUNNY     59  50  71 S8        30.11F
GREENCASTLE +  MOSUNNY   61  46  59 S3        30.12F
LAFAYETTE      SUNNY     63  46  54 VRB6      30.09F
TERRE HAUTE    CLOUDY    64  47  53 S8        30.12F

$$

INZ030>032-037>040-046>048-054>057-064-065-221700-
CENTRAL INDIANA

CITY           SKY/WX    TMP DP  RH WIND       PRES   REMARKS
CP ATTERBURY + MOSUNNY   63  43  48 CALM      30.14S
COLUMBUS       MOSUNNY   63  37  39 CALM      30.14F
FRANKFORT +    SUNNY     65  48  53 W7        30.11F
GREENWOOD *+   MOSUNNY   63  44  51 W6        30.13F
INDIANAPOLIS   PTSUNNY   62  46  55 W5        30.11F
-EAGLE CREEK   CLOUDY    62  46  55 VRB3      30.11F
KOKOMO +       SUNNY     62  46  55 W8        30.10F
MARION +       CLOUDY    61  46  59 SW10      30.10F
MT COMFORT *+  MOSUNNY   63  45  51 CALM      30.12F
SHELBYVILLE    MOSUNNY   64  42  44 CALM      30.12F
ZIONSVILLE +   CLOUDY    60  47  61 W7        30.11F

$$

INZ033-034-041-042-049-050-058-059-221700-
EAST CENTRAL INDIANA

CITY           SKY/WX    TMP DP  RH WIND       PRES   REMARKS
MUNCIE         CLOUDY    61  45  55 W7        30.10F
RICHMOND +     MOSUNNY   59  41  51 W7        30.13F HAZE

$$

INZ060-061-067>069-081>083-085>088-221700-
SOUTHWEST INDIANA

CITY           SKY/WX    TMP DP  RH WIND       PRES   REMARKS
EVANSVILLE     PTSUNNY   70  45  40 NE6       30.14F
HUNTINGBURG *+ PTSUNNY   64  48  56 NE7       30.15S
WASHINGTON +   SUNNY     65  41  41 CALM      30.14F

$$

INZ062-063-066-070>080-084-089>092-221700-
SOUTH CENTRAL AND SOUTHEAST INDIANA

CITY           SKY/WX    TMP DP  RH WIND       PRES   REMARKS
BLOOMINGTON    MOSUNNY   64  44  48 VRB3      30.13F
MADISON *+     CLOUDY    61  41  48 N3        30.17S
SEYMOUR +      CLOUDY    64  43  45 CALM      30.15S

$$





USA.gov is the U.S. government's official web portal to all federal, state and local government web resources and services.